Lapse_Rate
-1.4 -1.6 -1.8 -1.9 -2.0 -2.2 -2.3 -2.3 -2.5 -2.8 -3.2 -3.8 -4.4 -5.0 -5.4 -5.8 -5.6 3.3 8.6 5.8 5.2 0.9 1.2 9.7 9.6 9.4 9.3 8.5 8.6 8.6 6.5 6.5 6.5 6.5 6.5 7.2 6.6 7.8 8.2 7.7 8.0 8.3 8.2 8.9 9.5
-1.6 -1.9 -1.9 -2.1 -2.1 -2.3 -2.4 -2.5 -2.7 -3.0 -3.5 -4.0 -4.5 -5.1 -5.5 -6.0 3.8 9.0 1.6 1.2 0.8 0.9 7.9 9.1 8.5 8.8 8.2 7.9 8.0 6.9 6.5 6.5 6.5 6.5 6.5 7.0 7.0 7.2 7.2 7.1 7.4 7.8 8.8 9.2 9.4
-1.8 -2.1 -2.1 -2.3 -2.2 -2.4 -2.5 -2.6 -2.8 -3.2 -3.8 -4.2 -4.5 -5.0 -5.7 -4.8 7.1 8.6 0.6 1.1 0.7 1.7 9.7 9.6 9.2 8.6 7.5 7.9 7.5 6.9 6.5 6.5 6.8 7.3 7.4 6.9 7.0 7.7 6.9 6.5 7.3 7.4 8.1 8.9 9.1
-2.1 -2.1 -2.3 -2.3 -2.4 -2.5 -2.7 -2.9 -3.2 -3.5 -3.9 -4.3 -4.5 -5.0 -5.2 3.2 6.5 8.8 1.0 0.3 0.4 5.8 9.6 9.1 8.6 7.7 6.7 6.5 7.5 6.5 6.9 7.0 7.0 7.4 7.3 6.7 7.5 6.9 7.2 7.3 8.2 8.4 8.8 8.9 8.8
-2.3 -2.4 -2.3 -2.4 -2.5 -2.8 -2.9 -3.2 -3.6 -3.9 -4.2 -4.3 -4.4 -4.8 2.0 8.3 8.2 6.4 0.7 0.5 4.1 6.9 9.1 8.6 8.0 7.6 6.5 6.8 7.1 6.5 6.6 7.2 7.5 7.4 7.4 7.5 7.0 6.8 7.1 8.0 8.5 8.6 8.7 8.7 8.8
-2.4 -2.4 -2.6 -2.7 -2.9 -3.0 -3.1 -3.5 -4.0 -4.4 -4.4 -4.3 -4.2 -5.1 5.8 7.1 9.9 9.7 8.0 5.5 9.2 9.4 9.1 8.9 8.2 8.4 7.4 7.0 6.7 7.2 7.0 7.0 7.3 7.2 7.4 6.7 6.8 7.2 7.5 8.2 8.2 8.4 8.5 8.8 8.7
-2.3 -2.5 -2.8 -2.8 -3.0 -3.3 -3.6 -4.1 -4.5 -4.7 -4.5 -4.1 -3.7 1.5 8.7 8.2 9.9 9.9 9.9 9.3 9.9 9.6 8.8 9.2 9.1 8.2 8.0 6.6 7.8 7.3 6.5 6.5 6.7 7.1 6.6 7.3 6.5 6.5 7.6 8.0 7.8 8.1 8.4 8.5 8.7
-2.5 -2.8 -2.8 -2.9 -3.4 -3.8 -4.4 -4.9 -5.2 -4.7 -4.0 -3.6 -3.6 4.8 7.9 9.7 9.8 9.8 10.1 9.8 10.0 10.0 9.5 9.5 9.4 8.5 7.9 8.0 7.2 6.5 6.5 6.5 6.5 6.7 6.9 6.9 6.5 6.5 7.8 7.7 7.5 7.9 8.2 8.3 8.5
-2.7 -2.9 -2.9 -3.3 -3.7 -4.4 -5.1 -5.6 -5.1 -3.9 -2.8 -2.7 3.8 8.4 7.6 4.6 9.0 9.9 10.0 9.1 9.5 9.6 9.5 9.4 9.1 8.0 7.8 6.5 6.5 6.5 6.6 6.5 6.5 6.7 6.5 6.5 6.5 6.5 7.8 7.7 7.4 7.6 8.0 8.2 8.3
-2.9 -2.8 -3.2 -3.7 -4.2 -4.9 -5.7 -6.0 -4.7 -2.5 -0.3 5.2 8.1 8.1 8.6 8.1 9.3 9.5 10.0 9.5 8.8 8.8 8.4 8.2 7.9 6.5 6.5 6.5 6.5 6.5 6.5 6.5 6.5 6.5 6.5 6.5 6.5 6.5 7.4 7.4 7.3 7.7 7.9 8.0 8.2
-2.8 -2.9 -3.3 -3.9 -4.6 -5.4 -2.0 6.3 7.8 8.5 9.0 7.9 8.0 7.8 8.3 9.2 9.7 9.1 9.6 9.1 8.9 8.0 6.6 7.4 6.5 6.5 6.5 6.5 6.5 6.5 6.5 6.5 6.5 6.5 6.5 6.5 6.5 6.5 6.9 7.2 7.1 7.5 7.7 7.9 8.2
-3.0 -3.1 -3.6 -4.1 -4.9 -5.3 -0.9 8.8 8.8 9.1 7.3 8.7 8.6 8.5 9.0 9.2 7.8 8.7 9.6 7.8 7.4 6.5 6.8 6.5 6.5 6.5 6.5 6.5 6.5 6.5 6.5 6.5 6.5 6.5 6.5 6.5 6.5 6.5 6.5 6.8 7.2 7.3 7.6 7.8 8.3
-3.1 -3.5 -3.9 -4.5 -5.0 -1.1 9.0 9.1 10.2 9.8 7.3 7.7 8.5 8.3 8.5 8.9 7.7 7.9 8.9 8.2 6.8 6.5 6.5 6.5 6.5 6.6 6.5 6.5 6.5 6.5 6.5 6.5 6.5 6.5 6.5 6.5 6.5 6.5 6.5 7.0 7.3 7.6 7.8 8.1 8.1
-3.1 -3.5 -4.3 -5.7 -1.4 9.6 9.1 9.9 10.2 9.9 6.5 6.5 6.9 8.0 8.6 8.5 7.1 8.8 9.1 8.1 6.9 6.5 6.5 6.5 6.8 6.5 6.5 6.5 6.5 6.5 6.5 6.5 6.5 6.5 6.5 6.5 6.5 6.5 6.5 6.5 6.5 7.1 7.5 7.9 8.1
-3.2 -3.6 -4.6 -6.3 5.1 9.2 9.5 10.3 10.2 9.4 6.5 6.6 6.8 9.2 8.7 7.5 7.7 7.7 9.1 8.1 6.5 6.5 6.5 6.5 6.5 6.5 6.5 6.5 6.5 6.5 6.5 6.6 6.5 6.5 6.5 6.5 6.5 6.5 6.5 6.5 6.5 6.7 7.3 7.7 8.0
-3.7 -4.3 -4.8 1.5 5.7 9.9 9.9 10.2 9.4 6.5 6.5 6.5 7.0 6.6 6.5 7.4 7.2 7.8 7.8 8.4 8.0 6.5 6.5 6.5 7.3 6.5 6.5 6.5 6.5 6.5 6.5 6.5 6.5 6.5 6.5 6.5 6.5 6.6 6.5 6.5 6.5 6.7 7.3 7.7 8.0
-4.3 -5.0 -4.4 3.0 9.1 9.8 10.2 9.2 6.5 6.5 6.5 6.5 6.5 6.5 6.5 6.5 6.5 6.6 6.5 6.5 6.5 6.5 6.5 6.5 6.5 6.6 6.9 6.5 6.5 6.5 6.5 6.5 6.5 6.5 6.5 6.5 6.5 6.5 6.5 6.5 6.5 6.6 7.1 7.6 8.0
-4.8 -5.8 -0.8 5.9 9.6 9.7 9.6 6.7 6.5 6.5 6.5 6.5 6.5 6.5 6.5 6.5 6.5 6.5 6.6 6.5 6.5 6.4 6.5 6.5 6.5 6.5 6.5 6.5 6.5 6.5 6.5 6.5 6.5 6.5 6.5 6.5 6.5 6.5 6.5 6.9 7.2 7.4 7.5 7.8 7.9
-5.3 4.4 9.6 10.1 8.9 9.9 8.4 6.5 6.5 6.5 6.5 6.5 6.5 6.5 6.5 6.5 6.5 6.5 6.5 6.5 6.5 6.5 6.5 6.5 6.5 6.5 6.5 6.5 6.5 6.5 6.5 6.5 6.5 6.5 6.5 6.5 6.5 6.5 6.5 6.5 6.7 7.0 7.3 7.5 7.7
6.8 9.6 9.4 9.9 9.7 9.5 6.9 6.5 6.5 6.7 6.6 6.5 6.5 6.5 6.5 6.5 6.5 6.5 6.5 6.5 6.5 6.6 6.9 6.5 6.5 6.5 6.5 6.7 6.6 6.5 6.5 6.5 6.5 6.5 6.5 6.5 6.5 6.5 6.5 6.5 6.5 6.5 7.1 7.4 7.9
6.2 8.4 9.6 10.0 10.1 8.4 6.5 6.5 6.6 7.4 7.3 6.5 6.5 6.5 6.5 6.5 6.5 6.5 6.5 6.5 6.5 6.5 6.9 6.5 6.5 6.5 6.5 6.5 6.5 6.5 6.5 6.5 6.5 6.5 6.5 6.5 6.5 6.5 6.5 6.5 6.5 6.6 7.2 7.6 7.8
9.1 6.6 9.9 10.3 7.4 7.3 6.5 6.5 0.6 6.8 7.6 6.5 6.6 6.5 6.5 6.5 6.5 6.5 6.5 6.5 7.2 6.9 6.5 6.5 6.5 6.5 6.5 6.5 6.5 6.5 6.5 6.5 6.5 6.5 6.5 6.5 6.5 6.5 6.5 6.5 6.9 7.0 7.5 7.8 8.0
8.3 8.2 9.9 9.6 6.5 6.5 6.7 6.5 7.0 6.5 6.4 6.5 6.5 6.4 6.5 6.5 6.5 6.5 6.5 7.0 7.3 6.6 6.5 6.5 6.5 6.5 6.5 6.5 6.5 6.5 6.5 6.5 6.5 6.4 6.5 6.5 6.5 6.5 6.6 6.6 7.1 7.0 7.5 7.8 7.9
8.4 6.5 8.2 8.9 8.4 6.7 6.5 6.5 6.5 7.4 6.9 7.0 6.6 6.8 6.5 6.5 6.5 6.5 6.5 6.6 7.3 7.1 4.4 6.4 6.5 6.5 6.5 6.5 6.5 6.5 6.5 6.5 6.5 6.5 6.5 6.5 6.5 6.5 6.5 6.5 6.8 7.1 7.5 7.8 7.9
8.5 6.8 7.8 6.4 6.7 6.6 6.6 6.5 6.5 6.5 7.1 7.2 6.5 6.5 6.5 6.5 6.5 6.5 6.5 6.5 6.8 3.9 6.2 6.5 6.5 6.5 6.5 6.5 6.5 6.5 6.5 6.5 6.5 6.5 6.5 6.5 6.5 6.5 6.5 6.5 6.9 7.3 7.6 7.6 7.8
8.0 7.3 8.0 7.3 7.3 6.6 6.5 6.5 6.5 6.5 6.5 6.5 6.5 6.5 6.5 6.5 6.5 6.5 6.5 6.5 6.5 6.5 6.5 6.4 6.6 6.5 6.5 6.5 6.5 6.5 6.5 6.5 6.5 6.4 6.5 6.5 6.5 6.5 6.9 7.2 7.1 7.2 7.4 7.4 7.6
9.2 9.1 8.4 5.0 6.8 6.5 6.5 6.5 6.5 6.6 7.0 7.3 6.7 6.5 6.5 6.6 7.3 7.4 7.7 7.4 6.9 6.5 6.5 6.5 6.5 6.5 6.5 6.5 6.5 6.5 6.5 6.5 6.5 6.5 6.5 6.4 6.4 6.4 6.5 6.6 6.9 7.2 7.4 7.4 7.8
Wind_Speed
14 14 14 14 15 16 16 16 17 17 17 17 18 19 19 20 25 7 6 9 3 20 11 9 7 8 10 5 4 9 7 10 16 15 8 4 8 7 3 10 6 3 5 25 22
16 15 15 16 15 16 16 17 17 18 18 18 18 19 19 18 10 12 3 9 20 18 10 9 5 4 7 3 4 6 7 10 8 10 8 15 6 6 6 6 9 7 18 22 22
15 16 16 16 16 16 16 16 16 18 19 19 19 19 19 18 9 8 4 10 19 20 13 8 7 8 7 2 2 2 7 7 8 10 9 10 4 3 3 8 11 12 16 20 21
16 16 16 16 16 17 17 17 16 17 18 19 19 19 19 8 2 7 5 11 16 15 12 8 6 9 6 5 3 5 6 7 6 4 5 7 3 4 6 10 5 16 17 19 21
17 16 16 17 17 17 17 17 16 17 18 19 19 17 10 9 2 10 9 12 15 14 11 8 8 8 7 5 8 5 9 8 7 1 1 3 5 5 5 4 5 17 18 18 18
16 16 17 18 18 17 17 17 18 18 18 18 18 17 8 12 4 4 10 15 14 14 11 8 6 9 11 4 7 9 7 5 3 2 4 9 11 9 9 8 12 15 17 17 17
16 17 18 19 19 19 19 18 18 17 16 16 13 7 9 4 2 5 11 15 15 13 10 6 7 11 11 9 6 9 10 6 5 3 4 8 16 13 11 10 13 15 16 17 17
17 17 18 19 20 20 21 20 18 15 14 13 9 9 4 4 0 5 9 13 12 9 8 9 9 12 13 7 12 11 9 7 7 9 3 14 5 12 10 11 13 15 15 16 17
17 17 18 19 20 21 21 21 16 12 7 7 7 8 5 4 10 9 9 12 11 10 8 7 11 13 13 11 13 10 10 4 2 2 7 7 9 11 13 13 12 13 16 17 17
17 17 18 19 20 21 22 13 4 6 7 8 7 7 6 9 11 7 8 6 9 9 10 10 8 13 14 12 12 7 5 6 4 4 9 12 7 5 15 13 15 15 16 17 18
16 16 17 18 18 19 15 4 5 6 11 7 1 2 3 4 4 10 11 11 10 9 14 14 13 15 15 14 12 16 10 10 10 3 8 12 12 10 2 15 12 17 16 17 19
17 17 16 18 19 18 8 7 7 6 7 8 6 6 3 4 9 14 14 13 13 15 16 16 13 16 16 12 13 11 14 15 12 6 9 13 13 15 3 4 15 15 18 17 19
17 17 18 18 19 7 10 6 5 6 7 8 6 10 9 10 10 16 16 19 14 16 17 15 17 2 12 8 14 15 16 16 15 10 13 18 15 17 8 6 6 7 11 19 19
15 17 19 24 5 2 4 1 5 3 6 11 10 8 8 9 8 3 17 16 15 15 18 16 15 14 11 14 14 17 11 12 10 11 11 8 9 7 8 4 13 9 11 13 20
14 15 16 9 10 7 6 4 3 4 6 9 9 7 12 14 13 12 12 14 16 14 10 15 13 14 14 16 14 13 10 13 10 13 17 18 9 10 8 8 5 6 6 3 13
14 14 15 6 6 5 3 3 5 6 2 8 9 11 14 13 9 10 11 11 11 14 12 17 11 10 13 14 15 16 10 11 13 13 13 18 14 13 6 4 6 9 10 6 6
14 12 9 8 2 2 5 6 6 8 4 8 14 14 16 9 11 12 15 15 11 10 15 17 18 15 14 12 11 13 14 11 11 11 12 16 13 7 8 8 10 7 7 3 3
13 11 11 8 6 6 7 8 8 6 6 5 5 14 13 13 10 13 12 14 15 15 12 8 11 18 14 15 16 14 15 12 12 11 11 17 6 8 9 4 7 9 4 2 5
12 5 7 7 8 5 8 9 4 4 4 8 9 11 10 8 7 12 12 13 12 12 14 5 8 7 4 10 14 17 15 13 19 18 13 11 8 9 8 10 4 5 5 5 2
5 8 6 7 7 7 8 14 3 5 4 9 12 12 11 13 11 9 13 6 4 6 10 13 10 11 11 9 11 13 16 9 12 15 16 9 10 7 1 2 5 7 7 5 8
6 6 8 9 6 7 9 7 3 5 6 7 10 4 13 7 12 10 9 9 3 8 7 13 12 6 8 11 15 10 12 14 18 12 12 12 11 7 10 6 4 3 6 8 7
8 4 8 7 8 9 12 1 4 7 8 6 8 9 8 7 8 9 6 1 6 7 10 8 11 12 15 15 7 11 12 14 13 16 11 12 11 10 5 5 0 5 6 8 8
6 5 6 7 7 8 4 8 7 6 8 7 9 8 4 5 7 6 4 11 0 10 4 8 9 12 14 17 15 9 15 14 16 17 15 13 7 15 12 7 8 6 7 10 9
5 6 5 8 9 12 6 11 12 4 4 7 8 2 7 10 6 3 7 9 4 9 10 6 14 18 14 11 6 14 12 13 16 12 13 12 15 8 9 10 3 6 8 10 12
5 2 6 7 8 7 2 2 11 8 11 7 8 11 10 11 9 8 12 8 9 10 6 13 17 18 17 19 16 12 18 19 13 15 19 19 18 13 10 9 8 2 9 7 9
5 4 4 6 1 6 7 8 10 7 5 11 12 10 7 10 12 10 5 3 7 8 9 12 16 15 20 22 16 24 17 20 20 18 18 19 21 18 11 9 4 6 7 8 7
3 2 5 4 9 8 7 7 7 2 6 10 7 3 10 5 12 8 12 13 14 10 12 14 14 15 17 18 17 20 20 20 19 22 18 19 20 15 15 11 5 1 5 7 7
Wind_Direction
346 344 343 343 340 339 337 336 336 334 330 327 325 323 322 321 307 227 249 74 183 167 229 185 217 225 243 266 250 271 242 62 31 52 80 108 109 57 265 115 25 58 143 141 148
342 342 342 340 339 336 334 334 333 329 327 326 324 320 320 324 281 247 89 137 157 168 207 207 200 218 239 234 182 298 45 28 8 7 11 101 21 83 140 88 103 92 104 139 155
340 340 339 339 335 333 331 330 330 326 324 323 322 319 317 316 259 107 120 161 176 187 249 267 293 270 294 251 54 334 19 359 16 29 354 54 138 83 2 127 112 135 142 152 159
337 337 334 335 331 329 328 328 328 323 319 318 317 315 312 264 236 89 138 174 190 212 257 247 260 270 304 14 56 312 360 1 352 14 333 54 49 79 45 63 54 135 155 164 167
334 332 333 330 328 327 326 324 323 318 314 313 312 317 299 220 76 124 152 168 187 221 246 244 282 293 317 352 324 338 7 338 12 35 18 193 99 52 97 100 126 133 156 173 177
331 330 331 327 326 325 322 319 316 312 308 304 305 312 245 249 67 122 167 168 194 217 232 256 301 336 285 320 313 339 334 327 42 80 145 260 144 205 110 137 128 149 161 176 183
329 329 329 324 324 323 319 316 312 306 297 290 292 290 260 2 49 136 171 191 207 221 254 239 303 290 329 301 353 308 284 182 44 12 347 311 314 113 122 148 154 166 170 176 187
326 329 326 323 323 321 316 314 307 296 286 270 271 264 266 77 231 198 187 192 216 234 269 298 290 276 276 302 269 251 254 235 80 348 27 306 104 98 147 173 169 174 176 179 183
327 327 324 322 321 316 312 309 293 290 249 230 236 236 211 130 208 204 196 197 201 218 237 285 271 262 283 245 263 200 271 42 170 116 333 313 333 152 167 177 176 185 182 184 185
326 324 323 321 318 317 313 289 308 247 222 221 266 251 202 216 170 195 193 256 199 209 224 237 245 253 236 253 257 316 232 173 270 349 322 302 294 304 166 198 179 192 193 190 189
325 323 324 321 318 319 313 209 210 192 211 303 200 307 115 156 169 214 184 209 215 221 227 203 236 243 246 262 267 293 301 286 277 338 299 304 309 309 189 173 211 183 206 194 197
325 324 322 316 312 311 277 264 38 346 251 219 246 270 254 286 195 203 182 204 209 223 223 248 231 259 271 271 294 293 262 267 271 265 271 297 296 290 284 235 189 206 187 208 198
324 322 319 315 314 278 259 36 335 310 252 149 197 212 186 208 224 189 195 209 215 232 243 242 252 300 271 266 257 255 262 269 277 311 292 267 265 255 203 197 193 242 209 187 203
322 320 319 317 288 148 212 52 303 289 258 141 186 179 181 227 222 163 192 214 233 243 235 250 249 267 253 255 261 268 259 272 279 276 267 239 284 280 253 235 201 219 181 206 188
319 317 312 312 316 230 52 324 314 241 240 139 131 115 173 214 117 188 200 220 240 225 253 247 235 244 254 257 266 272 312 294 260 262 258 264 245 272 262 245 231 221 175 262 202
317 314 311 216 230 317 291 304 241 229 191 147 141 180 181 214 206 134 182 241 233 260 232 257 282 263 260 260 245 261 255 261 258 252 253 251 258 246 270 337 325 322 337 58 253
311 301 281 311 39 338 279 236 222 260 124 149 178 164 196 184 181 180 195 199 215 216 227 225 243 223 243 253 228 246 239 248 229 222 242 243 243 293 317 322 286 332 309 117 213
306 295 207 265 312 267 243 230 254 35 199 111 172 183 209 173 195 196 186 219 217 258 286 246 257 205 203 233 261 206 244 256 257 260 263 208 204 246 257 318 304 265 168 204 229
305 204 216 164 209 248 242 226 262 189 88 194 184 201 202 187 278 208 221 235 221 207 256 308 229 107 263 252 231 248 251 265 277 277 275 273 198 178 233 251 205 309 53 1 136
248 206 143 153 186 233 241 255 38 360 279 276 209 209 195 199 213 195 192 200 237 268 261 284 286 204 183 223 239 259 276 251 228 261 272 264 233 249 176 150 2 274 30 26 1
248 213 126 177 216 227 234 230 181 181 243 250 256 206 264 179 224 192 182 139 286 165 264 276 263 248 148 225 255 190 235 244 279 268 254 243 260 335 171 109 286 1 32 17 360
266 194 145 195 215 225 243 223 15 187 198 248 296 291 247 227 222 258 232 314 118 296 239 219 297 265 232 237 225 296 286 225 240 236 264 292 298 89 82 129 104 33 43 34 5
260 110 166 224 242 199 141 208 235 204 210 210 232 251 244 245 254 271 225 86 76 267 322 337 237 259 246 240 191 238 256 261 278 282 259 266 240 175 148 163 101 59 37 49 17
280 178 159 212 273 295 168 207 198 225 272 272 284 269 241 254 234 258 244 164 191 275 39 317 276 281 287 322 219 291 241 260 272 266 270 253 263 159 215 153 128 51 51 53 36
244 335 360 209 200 241 223 140 227 180 238 229 215 254 239 247 230 228 248 256 191 155 236 246 266 275 282 284 293 281 282 289 250 263 276 280 267 219 235 111 85 351 37 39 49
311 306 197 296 166 239 142 209 227 206 262 216 244 215 257 261 278 290 298 281 275 184 218 256 260 266 275 286 282 280 265 275 266 272 267 272 281 294 308 128 187 55 357 349 44
7 247 280 133 245 230 245 234 236 349 260 294 326 334 257 353 354 340 313 302 297 282 279 289 291 298 282 287 272 253 256 249 263 274 264 258 260 263 282 328 115 69 309 7 22